"Pseudo-MPEC" for CARANC2

Created 2024 Sep 8 20:22:06 UT using Find_Orb

Click here for an explanation of pseudo-MPECs

 
 Astrometry: 
     CARANC2*1C2024 09 04.43407901 02 08.135-14 20 00.38   ~94BM 20.65GVNEOCPG96
     CARANC2 1C2024 09 04.43917101 02 08.311-14 20 01.86   ~94BM 20.54GVNEOCPG96
     CARANC2 1C2024 09 04.44428101 02 08.542-14 20 03.59   ~94BM 20.65GVNEOCPG96
     CARANC2 1C2024 09 04.44938501 02 08.718-14 20 04.74   ~94BM 21.02GVNEOCPG96
     CARANC2  C2024 09 05.55683601 02 57.542-14 25 36.39   ~95Fb 21.44wXNEOCPF51
     CARANC2  C2024 09 05.58211601 02 58.390-14 25 43.68   ~95Fb 21.57wXNEOCPF51
     CARANC2  C2024 09 05.59476201 02 58.805-14 25 47.27   ~95Fb 21.33wXNEOCPF51
     CARANC2  C2024 09 07.36112101 04 09.466-14 34 23.47   ~979M 20.6 GVNEOCPH01
     CARANC2  C2024 09 07.36449201 04 09.560-14 34 24.48   ~979M 20.8 GVNEOCPH01

Station data:
(F51) Pan-STARRS 1, Haleakala  (N20.707234 W156.255910)  US/Hawaii.
   Observers J. Bulger, T. Lowe, A. Schultz, M. Willman. Measurers K.
   Chambers, S. Chastel, T. de Boer, L. Denneau, J. Fairlamb, H. Flewelling,
   M. Huber, C.-C. Lin, E. Magnier, Y. Ramanjooloo, R. Wainscoat, R. Weryk.
   1.8-m Ritchey-Chrétien + CCD.
(G96) Mt. Lemmon Survey  (N32.442729 W110.788720)  US/Arizona.  Observer E.
   J. Christensen. 1.5-m reflector + 10K CCD.
(H01) Magdalena Ridge Observatory, Socorro  (N33.984833 W107.189333)  US/New
   Mexico.  Observers W. H. Ryan, E. V. Ryan. Measurer W. H. Ryan. 2.4-m
   f/8.9 reflector + CCD.

Orbital elements:  CARANC2
   Perihelion 2024 Aug 30.65523 +/- 1.76 TT = 15:43:31 (JD 2460553.15523)
Epoch 2024 Sep  7.0 TT = JDT 2460560.5   Earth MOID: 0.3472   Ma: 0.0315
M   2.35224139 +/- 0.45             (J2000 ecliptic)             AutoNEOCP
n   0.32026061 +/- 0.0164           Peri.  246.81412 +/- 2.3
a   2.11576305 +/- 0.0723           Node    98.55775 +/- 1.1
e   0.3667534 +/- 0.0175            Incl.    5.63120 +/- 0.14
P   3.07752                H 21.49  G  0.15   U 10.0
q 1.33979963 +/- 0.00895    Q 2.89172648 +/- 0.136
From 9 observations 2024 Sept. 4-7; mean residual 0".12
Residuals in arcseconds: 
240904 G96  .08-  .04-    240904 G96  .06+  .17+    240905 F51  .05-  .01-    
240904 G96  .29-  .01+    240905 F51  .04-  .02+    240907 H01  .01+  .01+    
240904 G96  .28+  .20-    240905 F51  .09+  .00     240907 H01  .02-  .04-    

Ephemerides (geocentric):
Date (UTC) HH   RA             Dec           delta  r     elong  mag " sig PA
---- --------  ------------   ------------  ------ ------ -----  --- --------
2024 09 08 20  01 05 00.351   -14 40 47.61  .37151 1.3423 150.2 21.0 1.13 106
2024 09 08 21  01 05 01.702   -14 40 58.62  .37148 1.3424 150.2 21.0 1.16 106
2024 09 08 22  01 05 03.048   -14 41 09.60  .37146 1.3424 150.2 21.0 1.20 105
2024 09 08 23  01 05 04.389   -14 41 20.57  .37143 1.3424 150.2 21.0 1.23 105
2024 09 09 00  01 05 05.725   -14 41 31.51  .37141 1.3424 150.3 21.0 1.27 104
2024 09 09 01  01 05 07.056   -14 41 42.43  .37138 1.3425 150.3 21.0 1.30 104
2024 09 09 02  01 05 08.382   -14 41 53.33  .37136 1.3425 150.3 21.0 1.34 104
2024 09 09 03  01 05 09.702   -14 42 04.21  .37134 1.3425 150.3 21.0 1.37 103
2024 09 09 04  01 05 11.018   -14 42 15.06  .37131 1.3425 150.3 21.0 1.41 103
2024 09 09 05  01 05 12.328   -14 42 25.90  .37129 1.3426 150.4 21.0 1.45 102
2024 09 09 06  01 05 13.634   -14 42 36.71  .37127 1.3426 150.4 21.0 1.49 102
2024 09 09 07  01 05 14.934   -14 42 47.50  .37124 1.3426 150.4 21.0 1.53 102
2024 09 09 08  01 05 16.229   -14 42 58.27  .37122 1.3426 150.4 21.0 1.57 101
2024 09 09 09  01 05 17.519   -14 43 09.02  .37120 1.3426 150.5 21.0 1.61 101
2024 09 09 10  01 05 18.804   -14 43 19.75  .37118 1.3427 150.5 21.0 1.65 101
2024 09 09 11  01 05 20.084   -14 43 30.45  .37115 1.3427 150.5 21.0 1.69 100
2024 09 09 12  01 05 21.359   -14 43 41.13  .37113 1.3427 150.5 21.0 1.73 100
2024 09 09 13  01 05 22.629   -14 43 51.79  .37111 1.3427 150.6 21.0 1.77 100
2024 09 09 14  01 05 23.894   -14 44 02.43  .37109 1.3428 150.6 21.0 1.82 100
2024 09 09 15  01 05 25.153   -14 44 13.05  .37107 1.3428 150.6 21.0 1.86  99
2024 09 09 16  01 05 26.408   -14 44 23.64  .37105 1.3428 150.6 21.0 1.90  99
2024 09 09 17  01 05 27.658   -14 44 34.21  .37103 1.3428 150.7 21.0 1.95  99
2024 09 09 18  01 05 28.902   -14 44 44.76  .37100 1.3429 150.7 21.0 1.99  99
2024 09 09 19  01 05 30.142   -14 44 55.28  .37098 1.3429 150.7 21.0 2.04  98
2024 09 09 20  01 05 31.376   -14 45 05.79  .37096 1.3429 150.7 21.0 2.09  98
2024 09 09 21  01 05 32.606   -14 45 16.27  .37094 1.3429 150.7 21.0 2.13  98
2024 09 09 22  01 05 33.830   -14 45 26.72  .37092 1.3430 150.8 21.0 2.18  98
2024 09 09 23  01 05 35.050   -14 45 37.16  .37090 1.3430 150.8 21.0 2.23  98
2024 09 10 00  01 05 36.264   -14 45 47.57  .37088 1.3430 150.8 21.0 2.28  98
2024 09 10 01  01 05 37.473   -14 45 57.96  .37086 1.3431 150.8 21.0 2.33  97
2024 09 10 02  01 05 38.678   -14 46 08.32  .37084 1.3431 150.9 21.0 2.38  97
2024 09 10 03  01 05 39.877   -14 46 18.66  .37083 1.3431 150.9 21.0 2.43  97
2024 09 10 04  01 05 41.071   -14 46 28.98  .37081 1.3431 150.9 21.0 2.48  97
2024 09 10 05  01 05 42.261   -14 46 39.28  .37079 1.3432 150.9 21.0 2.53  97
2024 09 10 06  01 05 43.445   -14 46 49.55  .37077 1.3432 151.0 21.0 2.58  97
2024 09 10 07  01 05 44.624   -14 46 59.80  .37075 1.3432 151.0 21.0 2.63  97
2024 09 10 08  01 05 45.798   -14 47 10.02  .37073 1.3432 151.0 21.0 2.68  96
2024 09 10 09  01 05 46.968   -14 47 20.22  .37071 1.3433 151.0 21.0 2.74  96
2024 09 10 10  01 05 48.132   -14 47 30.40  .37070 1.3433 151.0 21.0 2.79  96
2024 09 10 11  01 05 49.291   -14 47 40.55  .37068 1.3433 151.1 21.0 2.85  96
2024 09 10 12  01 05 50.446   -14 47 50.68  .37066 1.3433 151.1 21.0 2.90  96
2024 09 10 13  01 05 51.595   -14 48 00.79  .37064 1.3434 151.1 21.0 2.96  96
2024 09 10 14  01 05 52.739   -14 48 10.87  .37063 1.3434 151.1 21.0 3.01  96
2024 09 10 15  01 05 53.879   -14 48 20.93  .37061 1.3434 151.2 21.0 3.07  96
2024 09 10 16  01 05 55.013   -14 48 30.96  .37059 1.3435 151.2 21.0 3.13  96
2024 09 10 17  01 05 56.143   -14 48 40.97  .37058 1.3435 151.2 21.0 3.19  96
2024 09 10 18  01 05 57.267   -14 48 50.95  .37056 1.3435 151.2 21.0 3.25  96
2024 09 10 19  01 05 58.387   -14 49 00.91  .37054 1.3435 151.3 21.0 3.30  95